ECMWFFLT1_925_rhum_129.txt.gz
RH
48 48 48 47 47 46 44 44 44 44 45 47 47 48 48 47 47 47 46 45 43 42 42 41 40 39 38 36 35 32 30 29 29 30 30 31 32 32 32 32 33 41 43 36 30 28 25 22 20 21 23 23 23 24 25 26 24 24 24 24 24 24 24
48 48 49 49 48 48 47 45 44 44 44 45 46 47 48 48 48 47 46 46 44 42 42 41 41 41 40 39 38 36 34 32 30 31 31 30 32 32 33 33 33 38 45 46 40 35 32 27 23 23 23 23 24 24 25 25 25 25 25 25 26 25 24
51 50 50 50 50 50 49 48 46 45 44 44 45 46 47 47 47 47 47 46 45 44 42 42 41 41 42 42 41 39 38 36 34 32 32 32 32 33 34 34 34 38 45 51 50 45 38 33 29 27 26 25 25 25 24 25 25 25 26 26 27 26 25
54 53 53 52 52 51 51 51 48 47 45 44 44 45 46 47 47 47 47 46 46 45 43 43 42 42 42 43 43 42 41 41 39 37 36 35 35 35 36 36 35 38 44 52 57 53 46 41 35 31 30 28 27 28 27 26 26 26 27 27 27 26 26
58 57 56 54 54 53 53 53 51 50 48 46 45 45 45 47 47 47 47 47 47 47 46 45 43 43 43 44 44 45 45 44 43 42 41 40 40 40 41 41 40 41 46 54 60 60 54 48 41 37 34 31 30 30 30 29 29 29 28 28 28 27 29
60 61 60 58 57 57 56 56 55 53 51 48 47 47 46 47 48 49 49 48 48 48 48 47 45 45 45 46 47 47 48 48 46 46 46 45 46 47 49 54 54 53 55 58 62 65 61 53 47 42 38 35 32 30 32 33 32 31 30 30 32 33 35
55 58 60 61 61 60 59 58 58 57 54 52 49 48 48 48 49 50 50 51 50 50 50 50 49 49 49 49 50 49 50 49 49 50 50 51 53 56 60 66 69 68 68 66 67 70 68 60 53 48 44 40 36 34 35 35 36 37 37 37 37 38 39
52 52 54 57 60 61 62 61 60 59 57 54 52 50 49 49 50 52 52 52 53 52 53 53 52 53 54 53 52 51 51 51 52 55 57 59 61 66 70 74 77 78 77 75 74 74 73 66 58 53 50 46 44 46 45 42 41 43 42 41 40 41 43
63 61 58 58 58 59 62 63 63 62 60 58 55 52 51 51 52 54 55 56 56 56 57 57 58 58 57 57 55 53 53 53 53 57 62 65 69 72 76 79 82 84 83 82 80 78 76 72 66 61 58 55 52 50 48 45 45 47 46 46 46 46 48
74 74 73 72 69 67 67 66 65 66 65 65 63 59 56 56 57 58 59 61 62 62 62 62 61 61 59 59 58 57 57 57 57 58 59 64 69 73 78 83 85 86 85 84 83 81 78 76 73 68 62 58 54 49 48 48 49 51 52 54 57 57 53
78 80 81 81 81 80 79 76 75 74 72 72 73 74 71 66 65 65 66 67 68 68 68 67 65 64 63 62 61 61 61 60 60 61 60 62 66 69 72 78 83 86 86 85 83 81 79 77 76 71 64 59 55 53 52 51 50 55 58 61 67 67 59
79 80 82 83 84 85 85 85 84 83 82 84 88 90 88 82 76 74 73 73 74 73 73 72 71 69 68 66 65 65 65 65 64 63 63 64 66 68 69 70 73 78 81 83 84 81 79 77 74 71 66 61 58 56 55 55 56 59 60 62 68 70 64
77 79 80 82 84 86 87 87 87 87 90 96 99 98 97 96 92 86 81 79 79 79 78 77 77 76 75 73 70 69 69 70 70 69 68 68 68 70 71 71 73 75 74 75 79 80 79 77 74 71 66 60 58 57 58 62 64 62 62 65 67 65 60
78 79 80 82 84 86 87 87 89 94 97 100 101 99 97 99 100 97 92 86 82 81 81 80 80 80 80 79 77 76 75 75 76 78 78 78 77 77 78 78 81 85 83 79 78 79 79 76 71 67 63 58 56 55 56 61 62 61 61 61 59 56 56
82 82 81 82 83 85 85 84 88 98 102 100 100 100 98 99 100 100 99 96 90 85 82 81 82 82 82 83 82 80 80 80 81 84 86 88 87 87 87 87 86 89 92 91 86 82 79 77 72 66 62 59 56 53 52 51 50 50 51 53 57 62 66
84 84 84 83 83 86 86 82 86 97 102 100 100 100 98 100 101 100 100 100 98 94 89 85 85 84 83 85 85 83 85 86 86 89 93 96 96 95 95 95 91 91 95 97 95 90 84 80 74 69 65 60 56 55 52 51 52 54 56 64 73 77 76
82 83 86 86 84 87 87 82 85 96 102 100 100 100 100 101 100 98 99 101 100 99 98 95 93 91 89 88 87 87 92 96 96 95 96 98 100 101 100 99 97 98 100 100 100 98 93 89 84 81 78 71 65 60 53 54 64 69 69 75 83 85 82
83 80 83 86 84 86 87 82 80 89 98 101 100 100 101 100 99 96 96 100 101 99 100 100 98 97 97 97 95 93 97 101 100 98 100 101 101 102 101 101 100 101 101 100 101 101 99 98 97 96 95 91 88 83 71 63 66 69 72 80 84 83 82
82 78 77 80 80 79 79 76 69 73 90 101 99 99 101 100 101 100 98 99 100 99 100 101 101 101 100 99 99 98 100 102 100 100 100 100 101 102 101 101 100 99 98 98 99 99 99 99 100 101 101 99 99 100 94 85 78 72 73 82 84 82 85
77 76 73 72 73 70 70 70 64 63 79 95 95 95 98 98 98 100 100 99 98 96 95 94 95 98 101 102 102 101 101 101 100 101 101 100 102 102 98 96 96 95 95 94 93 90 89 92 95 98 100 100 100 102 101 98 95 89 83 83 85 87 90
69 68 66 65 65 63 60 60 58 54 62 80 92 94 94 94 95 96 99 101 100 98 96 93 88 88 90 95 98 100 101 99 93 92 97 101 100 94 90 92 93 91 91 92 91 88 88 88 89 91 94 96 97 98 97 97 100 100 97 93 91 91 93
67 67 63 56 51 50 50 50 52 49 48 61 80 88 88 89 92 93 95 99 101 100 100 98 94 90 86 85 89 95 99 94 84 81 89 99 100 95 93 95 94 90 91 93 93 93 92 90 89 87 86 84 84 83 81 81 83 87 95 100 99 96 95
79 77 71 62 55 58 62 65 68 68 65 68 79 88 91 91 91 92 94 97 100 101 102 103 101 99 96 91 91 95 96 92 87 84 87 92 95 96 98 101 99 95 94 94 94 95 94 91 88 87 84 82 81 78 73 70 68 68 77 90 98 99 98
86 86 84 81 77 76 79 82 84 83 83 83 85 89 95 97 94 90 85 81 79 80 81 85 91 98 101 100 99 99 98 96 95 93 90 87 87 90 93 97 101 101 99 97 96 96 96 93 90 88 86 82 77 74 72 73 73 71 72 78 84 90 97
89 89 91 92 91 90 90 89 86 81 79 79 78 77 84 92 92 87 81 77 75 72 67 66 73 82 88 92 96 98 98 97 95 94 94 93 93 94 95 96 98 100 101 101 100 98 97 96 93 90 86 79 74 74 80 85 86 85 84 84 86 90 94
91 93 95 95 97 99 97 92 88 82 75 74 77 80 84 89 91 90 92 93 93 91 86 82 80 76 70 67 67 70 74 80 83 88 93 96 96 96 96 96 98 100 101 101 101 100 99 97 94 92 88 85 84 87 91 92 93 94 93 94 96 99 99
96 98 99 100 100 100 99 96 93 89 82 81 90 96 95 94 94 96 100 100 95 92 93 95 96 92 85 77 68 62 61 61 61 63 68 74 84 95 98 96 94 97 100 101 100 101 100 97 96 96 96 95 96 97 96 95 95 97 98 97 99 102 103
101 101 100 101 101 101 101 100 97 97 95 95 100 102 100 101 101 100 101 102 99 96 96 96 97 97 96 94 90 85 80 75 68 64 60 58 66 83 96 100 97 97 100 102 101 101 102 101 100 101 101 101 101 101 100 100 100 100 101 101 102 103 102
102 102 100 101 101 101 104 104 100 100 100 100 101 101 101 102 102 101 102 102 100 100 101 100 97 94 93 94 95 96 94 90 87 85 80 73 67 71 81 92 100 102 102 102 102 101 101 101 101 102 102 102 102 102 101 101 102 102 102 103 103 102 101
102 101 101 100 98 100 103 103 100 99 100 101 100 100 101 101 100 100 103 100 94 92 96 98 99 99 97 97 100 102 101 98 96 93 90 87 83 79 78 84 95 101 101 102 103 102 102 101 101 102 102 103 102 102 100 99 99 100 102 103 102 101 101
99 100 102 100 99 101 101 100 99 99 100 100 100 101 102 101 100 101 102 96 86 82 85 91 98 101 100 99 100 102 102 101 102 102 100 97 95 93 91 91 94 98 100 101 102 102 102 102 101 102 103 103 102 101 101 100 100 100 102 103 102 101 101
100 101 102 100 100 101 100 100 101 101 100 101 101 101 101 99 100 103 100 88 77 77 82 88 95 99 100 100 102 102 101 100 101 102 102 102 101 100 99 98 97 96 98 101 102 101 101 101 101 101 102 102 102 102 101 101 102 102 101 102 101 100 101
101 104 102 100 101 101 101 101 101 101 101 101 99 100 102 102 101 99 92 83 80 88 94 97 99 101 101 101 103 103 102 102 103 101 100 101 102 101 101 101 100 100 101 104 104 102 101 100 100 101 101 102 104 104 102 101 101 101 100 101 100 100 100
91 95 99 101 100 99 101 101 100 101 102 100 100 102 100 91 80 73 73 78 88 98 101 101 102 103 101 101 103 103 102 103 103 102 101 100 99 99 98 98 99 101 103 105 105 104 102 100 100 100 100 101 103 104 103 102 101 100 100 100 100 100 100
91 88 92 96 97 100 102 99 96 99 99 97 101 101 87 74 72 75 78 83 91 99 102 103 104 105 103 103 103 100 98 100 102 104 105 101 98 96 94 92 95 99 101 102 104 104 103 102 101 101 101 101 102 102 102 102 101 101 102 100 100 101 100
101 92 85 83 87 97 102 96 93 99 100 99 102 98 83 80 93 100 97 95 98 101 103 103 104 105 105 105 104 98 93 93 97 101 103 100 96 95 92 90 94 100 101 100 101 102 102 104 103 101 101 103 103 101 101 101 101 101 102 102 101 100 100

ECMWFFLT1_925_rhum_135.txt.gz
RH
59 62 66 69 70 69 66 63 62 61 60 59 58 57 57 58 58 59 58 58 58 56 56 56 54 54 52 51 50 48 47 46 44 42 40 37 36 34 34 34 36 43 44 38 34 33 32 31 30 28 26 25 24 25 27 29 29 30 30 30 29 25 22
64 62 62 63 67 71 71 70 66 63 61 60 59 58 57 57 57 58 58 57 58 57 56 56 56 55 54 54 53 51 50 48 46 45 43 40 39 37 36 36 35 40 45 43 37 34 34 32 31 30 28 27 26 25 26 29 30 31 32 30 28 25 21
72 71 70 67 66 67 70 73 73 71 68 63 60 59 58 58 57 57 57 57 58 57 57 57 56 56 56 56 56 54 52 52 50 49 46 44 43 40 39 38 37 39 44 46 43 38 35 34 32 31 30 29 29 27 26 28 30 30 30 29 27 25 20
71 73 74 74 74 72 71 71 73 75 76 74 70 65 61 60 59 58 57 57 57 57 58 58 58 57 57 58 58 57 55 55 55 53 51 49 48 45 43 42 41 40 42 46 47 43 39 37 34 32 31 31 29 27 27 27 30 34 33 30 27 26 23
70 71 73 75 78 79 78 77 75 73 74 77 78 77 72 68 63 62 61 59 59 59 59 60 60 59 59 61 61 60 59 59 58 57 56 54 53 51 49 47 46 44 44 47 50 49 46 41 38 35 31 31 29 28 28 27 32 40 40 35 30 27 26
72 72 75 76 78 79 81 83 82 80 78 76 76 77 78 78 74 70 66 64 62 62 61 62 61 60 61 63 63 63 63 63 62 61 61 59 58 57 55 54 53 51 51 52 53 54 54 50 44 38 34 31 29 29 30 29 35 45 45 39 34 29 27
75 77 80 79 79 79 81 81 83 85 85 83 81 80 79 80 80 79 76 72 69 66 65 64 63 63 63 65 65 65 65 66 66 66 65 64 63 62 62 62 60 59 59 60 60 60 61 60 54 47 41 36 31 29 30 29 38 51 52 45 40 33 30
81 81 82 81 81 81 80 81 81 81 83 87 91 92 91 88 87 86 84 82 79 75 72 70 68 67 66 66 67 66 67 68 69 70 70 69 69 69 70 69 69 69 68 67 67 65 66 68 66 59 52 45 38 34 35 35 38 46 47 45 44 39 34
82 83 82 81 82 81 80 81 80 79 85 94 98 99 100 99 96 94 93 92 89 87 84 80 76 74 71 71 70 69 69 69 70 72 74 73 73 75 76 76 74 74 73 72 72 70 70 74 77 73 64 56 48 42 39 38 37 40 42 43 45 44 41
80 81 82 82 82 80 81 80 77 81 92 100 101 100 100 100 100 99 98 98 98 96 95 91 87 83 80 78 77 75 74 74 74 75 75 75 76 77 78 80 79 77 76 75 75 75 74 76 80 80 74 66 59 50 44 41 41 45 48 50 53 53 51
80 80 81 84 84 81 80 78 79 89 99 101 100 100 100 100 100 100 100 100 101 100 100 99 96 94 90 86 85 83 82 81 81 81 80 78 79 79 79 81 82 81 79 78 77 77 76 76 77 78 77 75 68 58 52 49 48 49 52 57 61 61 57
82 82 83 85 83 81 81 79 84 96 101 100 99 98 99 100 99 100 100 99 98 98 99 100 100 99 98 96 94 92 89 89 87 87 87 85 83 83 82 81 81 80 80 80 80 79 78 78 77 76 76 77 74 65 57 55 54 54 57 62 64 62 60
78 78 81 81 78 78 76 74 85 100 101 99 100 98 97 95 91 92 94 93 93 92 93 97 100 100 99 98 99 99 97 95 94 92 92 92 91 90 88 86 85 82 79 79 81 81 80 78 77 77 77 77 77 73 65 63 62 62 63 67 67 64 62
70 72 74 75 72 74 71 67 79 99 102 98 99 100 96 87 81 82 86 87 88 88 88 91 96 99 100 99 99 100 100 99 98 98 97 98 98 97 95 93 92 91 87 84 83 83 81 79 78 78 77 77 78 77 73 71 70 69 69 68 67 66 64
60 62 63 65 65 65 66 64 69 89 102 99 96 101 98 88 81 80 80 82 84 85 85 86 89 92 95 97 98 99 100 100 100 100 100 100 100 100 100 100 97 96 95 93 91 88 84 82 81 79 79 80 81 79 76 73 72 72 72 72 74 75 74
54 57 55 52 53 54 56 55 53 70 97 102 97 100 101 94 88 82 77 77 76 77 82 83 84 87 88 89 90 93 98 100 99 100 101 100 101 100 100 101 99 97 98 97 96 94 91 88 86 84 83 82 83 81 79 80 81 81 81 83 85 84 82
53 54 50 47 55 63 65 60 53 63 92 104 99 99 101 99 95 85 78 78 77 81 88 85 80 85 88 88 86 89 98 102 99 100 101 99 100 101 100 100 98 98 100 99 94 91 91 91 91 92 93 91 89 86 84 88 91 89 89 91 87 82 81
51 47 49 59 75 84 83 75 62 65 90 104 100 99 101 100 98 90 84 88 92 94 94 85 77 78 82 90 96 96 98 101 99 100 102 100 100 101 101 99 97 98 99 98 94 91 91 92 91 93 98 99 97 93 90 90 89 88 90 91 85 79 79
51 47 57 75 88 90 88 80 65 66 91 105 100 100 102 100 99 96 93 97 101 98 90 82 76 71 69 82 98 101 100 101 101 100 101 100 100 101 99 95 94 95 96 96 97 95 95 96 96 96 98 100 100 100 96 91 86 86 89 89 85 80 79
63 66 75 84 88 86 83 79 68 69 90 104 100 100 102 100 99 99 99 100 99 94 87 82 80 77 69 70 81 91 95 98 98 98 99 100 100 101 98 93 93 94 94 94 95 93 93 95 97 99 101 100 99 101 99 95 90 89 88 86 84 83 80
80 84 85 84 82 80 77 78 74 70 80 98 103 100 100 102 100 98 100 102 97 91 90 87 86 83 76 72 80 90 93 91 91 95 98 99 100 100 98 96 97 98 97 96 97 95 95 96 97 98 101 100 100 100 100 99 96 92 89 87 84 84 82
89 89 87 83 81 80 77 76 75 71 73 88 101 102 99 101 101 99 101 102 99 97 98 96 91 88 86 88 93 99 100 96 95 97 97 98 101 101 97 94 95 99 100 100 100 100 99 100 100 100 100 100 100 100 100 101 100 95 91 87 84 83 82
93 93 91 86 83 83 79 74 75 76 72 76 92 103 102 99 101 102 101 100 100 102 102 99 95 94 97 99 99 101 101 97 93 95 98 99 97 93 87 83 84 92 100 101 100 101 101 100 100 100 100 100 100 100 99 100 101 98 93 88 86 84 82
96 99 97 92 86 84 79 75 77 80 73 68 81 99 103 100 101 102 99 99 101 101 98 97 101 103 102 101 101 100 95 84 78 84 91 89 83 79 79 78 77 84 93 98 100 100 100 100 100 100 100 98 97 97 98 99 100 100 96 91 88 86 86
98 101 100 95 91 86 79 78 84 84 74 69 80 95 102 101 100 101 100 98 98 94 87 89 97 97 90 86 86 88 86 80 78 81 84 82 79 79 80 81 83 86 89 90 93 97 99 100 100 99 99 97 96 98 99 100 100 101 99 97 94 91 91
101 102 99 96 95 89 81 85 92 84 73 76 88 98 100 97 98 102 100 92 89 86 79 77 79 76 73 72 72 76 80 81 80 79 79 79 79 81 81 83 89 96 97 93 91 91 94 97 99 100 99 98 100 102 101 100 100 100 100 101 100 99 99
102 102 99 99 99 93 88 93 96 85 78 89 99 100 99 98 99 103 99 92 89 82 73 70 69 68 71 72 71 72 75 76 78 79 79 79 79 80 81 84 90 98 101 101 100 98 96 96 98 100 101 101 102 102 101 100 101 100 100 100 100 101 102
102 101 100 99 100 99 97 99 99 93 93 100 100 98 100 100 100 102 99 94 87 73 63 65 68 69 72 73 73 76 77 77 80 80 79 81 81 80 81 81 82 87 92 96 101 103 101 99 98 98 99 101 102 102 101 100 101 101 100 100 100 100 100
101 101 101 98 97 100 101 101 100 99 100 101 98 98 101 100 101 102 93 79 70 63 60 64 69 73 77 79 83 89 89 87 88 85 82 83 80 79 84 82 78 86 93 93 96 103 103 101 100 99 98 100 101 100 100 100 102 102 102 101 101 100 98
100 101 102 98 95 98 101 101 100 100 101 101 99 100 101 99 101 102 85 64 58 62 67 73 81 88 93 93 96 100 99 98 98 94 93 91 84 84 93 89 80 87 92 88 92 102 103 101 102 101 100 101 100 100 100 101 102 102 102 103 103 100 97
99 100 101 99 98 100 100 100 100 100 101 101 99 101 102 100 101 102 86 64 57 66 78 90 99 103 103 102 103 104 102 102 103 100 101 100 93 92 98 94 87 90 90 88 95 103 100 99 101 101 99 100 100 100 100 101 102 102 101 102 101 100 99
100 101 101 100 100 100 100 100 100 100 100 101 100 99 98 98 101 99 81 62 61 74 88 97 104 107 105 104 107 107 104 104 106 105 104 104 102 101 101 100 97 93 90 93 100 102 99 99 101 100 100 100 100 101 100 100 101 101 101 102 101 99 98
96 94 96 100 100 99 100 100 99 100 99 99 100 100 100 103 102 91 73 65 70 81 87 89 94 100 101 100 103 105 103 103 106 105 104 106 106 102 97 96 97 95 94 99 102 99 99 101 100 99 100 100 100 101 100 100 101 101 100 101 101 100 99
82 76 82 93 97 98 101 99 98 101 101 98 100 101 96 91 83 72 68 71 74 78 82 82 84 88 89 90 92 95 97 101 103 103 105 107 104 94 84 81 85 88 91 96 99 99 100 101 100 100 101 99 99 100 97 97 100 101 100 100 100 100 100
76 70 75 84 89 95 101 98 94 98 100 100 100 91 74 66 66 67 71 75 73 73 76 78 78 81 82 83 86 88 91 96 98 100 105 109 107 98 85 77 81 84 79 76 84 95 102 100 96 97 100 100 100 100 97 94 95 96 99 101 100 99 98
74 68 70 78 84 93 99 94 89 95 101 103 99 84 66 67 78 82 80 80 77 73 72 73 76 80 80 81 84 87 89 93 94 96 101 105 107 105 94 86 89 90 81 72 75 87 97 98 93 90 95 99 101 100 99 97 94 93 97 101 100 98 97

ECMWFFLT1_925_rhum_138.txt.gz
RH
74 75 75 74 73 71 70 69 68 67 64 63 62 61 60 59 58 58 57 57 57 56 56 57 56 56 55 54 52 50 48 47 45 45 42 41 39 37 37 36 36 40 41 38 35 34 31 26 24 28 30 29 28 27 27 25 24 27 30 36 46 45 34
80 80 80 80 80 79 77 75 74 73 70 67 64 63 62 61 60 60 60 59 59 59 58 59 60 60 59 58 57 55 54 51 49 49 47 44 43 41 39 38 38 39 41 41 38 35 33 28 24 27 29 29 30 28 28 28 27 29 33 36 45 47 38
84 83 83 83 84 84 83 83 83 82 81 78 75 72 68 66 64 63 63 63 64 63 63 63 64 64 64 63 62 61 59 58 56 54 52 50 48 45 43 42 40 41 43 44 42 39 35 30 26 28 28 28 30 30 29 29 28 32 35 37 43 46 41
84 84 85 87 87 87 86 87 88 89 89 88 87 85 81 79 76 73 71 70 69 69 68 69 69 68 68 68 67 64 64 65 65 62 60 58 56 53 50 48 45 44 44 45 45 42 39 35 30 29 29 27 28 30 30 30 30 34 39 41 43 46 43
84 85 87 88 88 89 87 88 90 91 91 91 91 91 90 90 88 85 83 80 78 77 75 75 75 74 73 74 72 69 71 72 71 70 68 66 65 62 58 56 52 49 47 48 49 47 44 42 37 32 30 28 29 29 29 32 32 35 44 47 46 46 45
88 88 89 89 89 90 90 89 89 90 91 91 92 95 96 96 95 91 90 88 85 84 82 80 79 78 78 78 76 74 75 75 74 74 74 72 71 70 67 64 61 58 56 54 55 54 51 49 45 39 34 31 30 30 30 32 34 39 49 52 49 49 48
93 91 91 91 90 91 91 90 88 88 90 89 92 98 100 100 99 97 96 95 93 91 89 88 86 85 83 81 80 79 78 78 78 77 77 76 75 75 74 73 70 67 65 64 62 61 59 57 54 49 44 37 32 32 32 32 33 41 51 52 50 50 49
96 95 94 93 93 93 91 89 89 90 93 94 95 99 100 99 100 100 99 99 99 98 97 96 95 93 90 87 86 85 83 83 83 83 82 80 79 79 79 79 77 75 74 74 71 67 64 62 60 57 53 46 37 34 35 33 33 38 45 48 49 49 47
95 96 97 96 93 89 83 83 88 92 96 98 99 100 100 100 99 99 100 100 100 100 100 100 99 98 97 95 93 91 89 88 87 87 87 85 83 84 84 83 82 82 82 81 78 74 69 66 65 62 58 52 42 38 38 36 34 38 41 44 47 47 44
92 96 100 96 87 80 76 77 83 92 97 99 101 100 98 100 100 99 100 100 99 99 99 99 100 100 100 99 99 99 97 95 93 92 92 90 88 88 88 88 87 87 86 84 81 78 74 70 68 65 62 58 50 43 42 39 37 40 42 44 48 49 46
80 85 92 90 79 71 72 71 73 88 100 100 99 100 100 98 95 94 98 100 98 98 100 100 99 100 100 100 100 100 99 99 99 98 97 96 94 93 91 91 92 91 89 87 84 80 77 75 73 69 66 64 58 50 46 42 41 43 44 48 54 55 52
64 65 70 74 69 66 70 67 65 81 99 102 98 99 101 96 88 90 98 96 92 93 96 99 99 99 99 99 100 101 100 100 100 100 100 99 98 98 96 95 95 94 92 90 86 83 81 78 76 73 70 69 66 59 52 47 46 46 47 52 57 55 53
56 52 53 58 56 56 60 57 60 80 99 101 99 100 101 96 88 89 91 85 82 84 89 94 97 97 98 97 94 93 94 96 98 99 100 100 99 100 99 99 99 97 95 94 90 87 85 82 79 78 75 74 72 67 61 58 55 52 54 59 61 57 54
59 49 49 51 47 46 51 50 61 90 104 99 99 101 100 97 90 85 85 83 83 86 89 96 100 99 99 98 94 88 85 89 96 99 99 100 99 99 100 100 100 100 99 98 96 93 88 82 80 81 79 76 76 74 70 68 65 63 63 63 61 57 57
64 49 49 56 54 55 59 55 62 90 103 98 99 101 99 99 95 88 88 88 89 92 95 99 101 98 99 102 98 92 90 95 100 100 99 100 100 99 100 99 99 100 100 99 99 99 96 89 85 85 82 79 78 79 77 74 71 69 68 68 67 67 69
67 59 61 71 73 71 72 64 62 85 102 99 99 101 98 98 97 92 88 87 91 97 99 99 98 93 93 95 88 82 89 99 101 100 100 99 97 98 99 99 99 99 99 100 100 98 95 93 90 88 88 86 85 85 82 81 80 77 77 81 82 80 80
70 76 81 85 83 78 77 68 62 82 103 101 98 101 99 96 96 93 87 88 94 97 95 95 95 89 89 93 89 85 93 99 97 98 101 99 97 96 94 94 97 98 95 95 97 95 91 89 87 87 87 87 89 90 88 88 90 87 85 88 86 81 78
78 90 95 92 84 78 76 69 60 73 97 102 98 101 100 96 94 90 86 90 94 91 87 89 92 90 92 98 100 99 99 96 94 96 97 96 97 94 88 89 95 98 96 92 92 92 90 89 89 92 92 89 88 92 94 93 92 88 88 90 85 78 75
88 94 96 89 80 74 72 67 56 62 89 104 99 99 101 98 94 89 87 94 95 87 83 85 87 89 95 99 101 102 100 98 98 97 95 97 98 95 93 94 94 95 98 98 96 93 89 85 82 84 89 91 91 96 98 96 91 87 89 91 84 77 75
90 91 91 84 77 72 70 68 59 61 88 106 100 97 102 100 96 92 92 98 97 87 84 87 89 92 97 100 100 101 100 99 99 99 99 101 99 98 101 100 92 89 91 94 98 99 97 93 88 85 89 93 95 98 100 99 95 90 88 88 85 80 77
87 87 89 85 80 75 68 66 64 65 83 100 101 99 100 100 99 98 97 99 95 88 89 94 96 97 100 100 100 100 100 99 100 101 101 100 99 101 100 94 87 86 88 88 92 97 97 97 97 96 98 99 98 99 99 99 99 95 89 86 85 84 81
82 86 92 88 85 84 77 74 76 70 69 84 100 102 98 100 102 100 98 97 93 93 96 97 97 99 100 100 100 99 99 100 99 98 98 100 102 99 91 84 82 83 83 83 86 89 92 93 93 93 95 97 99 100 98 98 100 99 94 89 85 84 82
82 89 93 87 83 85 84 87 92 80 60 67 93 103 99 101 102 97 96 96 95 97 97 92 94 99 100 101 101 99 101 102 99 98 100 100 94 84 78 80 83 82 78 77 78 80 84 87 88 89 90 92 95 98 99 100 100 99 98 94 89 87 84
81 87 88 83 80 80 80 85 94 85 64 65 90 102 99 99 101 98 93 94 99 101 95 91 97 102 101 101 101 101 101 97 91 92 97 93 81 73 76 83 86 85 82 79 76 74 75 78 82 86 88 89 92 97 100 100 99 98 99 98 94 91 88
80 85 85 81 79 79 79 85 93 88 76 78 94 103 98 96 101 100 89 88 98 98 84 81 91 95 92 91 93 97 97 91 85 86 86 82 77 77 83 89 91 91 90 86 80 76 75 76 78 81 85 91 96 99 100 100 100 99 100 99 98 95 92
84 87 85 82 82 82 82 87 89 85 83 90 98 100 94 91 99 99 85 81 90 84 67 67 77 82 79 77 81 91 95 93 92 90 83 80 83 86 89 92 93 93 94 91 87 85 85 83 83 85 88 93 97 99 100 100 99 100 100 100 100 100 98
89 89 85 81 83 86 84 85 85 81 87 96 98 96 92 90 97 97 83 81 86 72 57 63 73 77 77 73 73 82 87 84 85 86 84 84 86 88 92 94 93 92 92 90 87 88 90 89 89 89 87 85 87 91 96 99 100 100 100 100 100 100 100
92 93 90 84 85 86 83 82 83 82 90 99 99 97 95 94 98 95 85 88 89 69 56 66 75 76 79 78 75 77 78 77 78 79 82 84 84 85 89 90 89 87 86 85 85 86 87 87 88 87 85 83 82 84 87 93 98 101 100 99 100 100 99
93 95 93 88 87 88 85 84 83 83 93 101 99 99 99 98 100 97 87 87 86 71 65 74 78 76 78 79 78 77 75 76 78 76 77 82 82 81 84 86 85 85 84 85 86 85 84 84 84 83 83 83 83 84 85 87 93 98 100 100 100 99 97
98 100 97 92 91 93 96 94 86 84 95 102 98 100 102 99 100 97 83 73 73 73 75 77 75 77 80 79 78 79 78 79 80 78 79 83 81 79 82 85 85 87 89 88 86 84 83 83 82 80 81 81 82 85 87 87 89 93 96 99 100 97 94
99 100 98 96 96 98 101 100 93 92 99 101 99 100 97 96 104 102 79 63 67 75 77 76 73 75 81 81 80 81 82 82 82 81 82 83 82 81 83 81 81 89 93 88 84 83 82 81 80 80 81 82 83 84 85 86 87 89 90 92 94 93 89
102 102 101 101 100 99 99 101 100 99 99 100 101 94 84 87 103 96 67 53 65 74 72 72 73 73 76 79 80 82 85 86 87 88 87 85 84 84 82 79 82 91 91 83 81 83 82 80 81 82 82 84 84 84 83 83 82 83 83 84 89 92 90
89 88 92 98 100 100 100 100 101 101 99 100 103 98 90 95 103 88 59 52 67 75 71 70 72 71 73 77 78 81 85 86 88 91 93 92 91 90 88 86 85 85 82 77 76 80 81 81 82 82 81 81 82 83 84 83 81 80 79 77 81 86 87
71 66 72 84 94 100 97 92 96 103 102 98 98 94 91 96 98 87 73 69 74 75 73 72 73 73 75 79 82 83 86 89 92 95 96 96 95 94 94 91 84 78 77 75 72 72 77 81 81 81 79 77 78 80 82 82 81 80 79 77 76 77 79
74 68 71 78 86 93 96 93 95 99 100 101 97 82 70 73 79 78 77 78 77 76 75 75 76 78 80 84 87 86 86 89 94 98 99 100 100 99 98 92 84 79 81 80 74 73 79 84 83 82 80 77 77 78 79 80 81 82 83 83 79 75 74
76 73 75 78 78 82 92 98 98 99 102 106 99 79 67 72 80 78 76 78 79 80 79 76 77 81 85 88 90 89 88 90 94 98 101 103 103 102 100 95 89 88 90 88 80 77 83 88 86 85 85 83 79 77 76 77 81 84 85 87 86 83 79

ECMWFFLT1_925_rhum_141.txt.gz
RH
77 78 77 75 76 75 75 76 74 72 70 67 64 61 59 58 57 57 57 56 56 54 55 54 54 55 54 52 51 50 49 48 47 46 45 43 42 40 41 40 39 45 46 41 40 39 37 37 33 28 25 25 26 27 27 28 29 30 30 31 32 33 33
80 81 80 79 79 80 81 81 82 83 83 81 79 75 71 67 63 61 59 57 58 57 57 57 57 57 57 57 56 54 54 53 50 50 48 46 46 45 43 42 41 43 46 44 41 40 39 38 37 34 29 26 26 27 28 29 29 30 30 30 31 33 34
80 82 82 82 82 82 84 84 84 87 89 89 90 89 87 84 79 76 72 67 65 64 63 62 62 62 62 61 61 61 60 60 58 56 54 51 50 49 47 46 44 43 46 47 44 42 41 39 38 37 34 29 26 27 28 30 30 31 31 31 31 33 34
77 79 81 82 83 83 84 86 86 87 90 91 92 93 93 92 90 89 89 86 82 79 77 76 73 72 71 69 69 69 68 68 67 64 63 61 59 57 55 52 49 47 47 47 46 45 45 44 42 40 38 33 28 27 29 30 31 32 32 32 32 33 34
74 77 78 78 79 81 82 84 85 87 88 89 89 92 94 95 95 95 95 95 93 92 90 89 86 83 81 80 80 80 80 78 77 75 74 73 72 70 67 63 59 56 54 53 53 52 51 50 48 46 44 39 31 28 29 30 32 33 34 34 34 34 35
76 78 78 78 78 79 80 81 84 85 86 88 91 94 97 99 99 98 96 96 96 97 96 95 94 92 91 91 91 91 90 88 86 85 84 84 83 81 79 77 74 71 69 67 66 65 63 60 56 52 50 46 40 36 32 30 31 34 35 37 38 37 37
79 78 79 81 80 80 82 84 86 86 89 94 98 99 100 100 100 98 97 98 99 99 99 98 98 98 97 98 97 97 96 95 94 92 91 90 89 88 88 87 86 84 82 80 79 77 74 70 66 62 58 55 52 47 39 32 31 34 37 40 41 40 40
78 79 82 83 82 83 83 86 89 90 96 100 99 100 100 99 99 99 98 98 99 99 100 99 100 100 100 100 100 100 100 100 99 97 97 95 93 93 93 93 92 91 89 87 86 84 81 77 74 71 67 64 62 57 50 40 34 34 36 40 42 43 43
75 81 84 85 87 84 81 87 90 87 94 101 99 100 101 99 99 99 98 100 100 97 96 96 95 94 94 96 99 99 98 99 100 100 99 99 97 97 96 95 95 95 94 91 89 86 83 80 78 74 71 69 66 64 60 52 43 38 38 39 43 46 45
76 81 82 87 90 78 72 82 82 78 89 100 100 100 100 100 98 95 96 100 96 90 90 89 86 84 85 88 93 95 94 94 95 97 97 99 100 100 100 99 98 97 95 93 91 87 83 81 79 75 71 69 66 64 63 60 52 46 42 40 44 49 47
79 81 80 82 77 60 57 63 63 75 96 102 99 100 100 100 97 92 96 98 90 88 90 86 83 84 86 88 92 96 95 88 84 84 86 88 89 91 95 99 100 100 96 94 91 88 84 83 80 76 73 70 68 65 64 63 59 52 46 44 48 52 51
85 86 83 71 53 42 45 45 51 81 104 100 98 101 100 100 96 92 96 95 88 90 92 88 89 94 95 95 98 102 97 84 73 73 79 85 86 85 84 87 93 97 98 98 95 90 86 84 82 80 76 73 71 69 66 65 64 58 51 48 50 52 53
90 90 78 56 43 45 47 45 60 92 104 98 100 101 98 100 97 92 94 91 86 87 90 93 98 99 98 100 99 95 92 85 76 76 87 96 97 95 92 90 91 94 95 97 98 96 91 85 82 81 79 76 74 73 71 70 70 65 58 54 54 54 55
87 89 75 54 51 59 57 55 77 100 101 98 101 100 99 101 97 92 92 88 84 87 92 98 100 95 94 95 85 74 81 92 93 92 97 101 100 100 99 98 99 98 95 94 96 99 97 92 88 85 81 78 76 76 75 75 74 71 65 60 59 57 57
81 86 84 73 70 71 66 67 88 105 101 98 101 100 97 96 91 91 92 86 85 91 96 99 99 93 92 93 84 77 87 99 100 99 100 98 97 98 97 95 96 98 98 98 98 99 99 97 96 95 90 86 83 81 80 78 77 75 70 67 67 65 65
78 82 90 90 82 75 71 68 81 99 102 99 100 101 98 94 89 90 90 87 88 94 94 94 96 95 94 96 95 94 99 101 100 100 100 97 97 97 95 92 92 93 96 100 100 100 100 98 97 94 91 90 90 88 85 83 83 83 81 80 79 78 76
80 79 90 94 81 75 74 63 64 89 104 100 98 101 99 95 89 86 86 85 87 91 88 86 91 94 96 99 100 99 100 100 99 101 100 98 97 97 94 93 95 94 91 90 92 94 96 98 97 94 91 93 97 98 95 93 91 89 89 88 86 85 83
80 81 91 93 80 75 77 62 53 77 100 101 98 101 100 94 90 86 84 84 85 86 83 83 86 91 97 100 100 100 100 100 99 100 100 98 97 98 97 97 99 96 85 77 77 79 80 84 90 96 98 96 94 92 91 94 96 92 88 89 88 84 81
82 87 92 91 83 78 75 63 52 67 95 103 98 100 101 97 92 87 83 85 86 82 80 82 85 89 97 101 100 100 100 100 99 101 102 100 98 98 99 99 101 99 89 80 77 74 73 74 76 83 92 95 94 88 82 85 94 96 93 90 88 84 82
91 97 95 93 93 88 84 81 68 66 91 106 100 98 102 99 95 92 89 89 89 83 80 84 87 89 94 99 101 101 100 100 100 100 100 101 98 97 99 101 100 95 86 79 78 76 75 76 76 78 83 91 97 96 89 85 90 97 98 93 88 86 84
92 98 93 90 94 92 91 97 88 74 85 102 101 98 101 100 99 98 94 91 88 84 83 86 87 88 91 96 100 101 100 100 100 100 101 101 98 97 102 101 93 84 77 74 74 74 72 71 73 76 79 83 91 95 95 93 90 93 99 97 92 88 85
89 94 88 82 83 83 83 91 92 83 86 98 102 100 100 100 101 99 92 88 87 87 87 88 87 88 93 98 101 100 100 100 100 100 100 100 100 100 100 96 87 81 78 76 73 72 71 68 67 71 73 77 83 86 91 95 93 93 98 99 96 92 88
85 87 85 80 76 74 74 80 86 86 87 95 101 101 99 100 102 96 86 81 86 91 90 87 86 90 97 101 100 100 102 101 101 102 101 100 102 100 93 88 86 83 81 80 77 74 73 69 66 66 68 73 80 87 93 97 96 96 99 102 100 96 93
74 76 80 78 74 72 71 76 83 84 85 92 100 101 99 100 101 95 82 77 85 93 89 85 90 99 104 105 103 102 103 100 97 100 101 98 96 92 86 85 86 84 83 83 80 76 75 74 74 74 77 80 86 91 94 92 89 88 93 99 101 98 96
73 77 78 75 75 74 75 80 82 78 79 91 100 97 95 97 98 93 82 79 87 87 75 76 93 101 99 98 98 96 93 90 89 90 91 90 87 85 85 86 86 85 84 82 80 79 80 80 81 83 85 85 84 82 81 81 81 82 85 91 98 99 97
78 79 77 75 75 76 77 80 78 72 78 91 95 87 86 93 95 87 78 79 82 71 57 68 88 92 87 87 89 87 85 83 83 83 83 84 84 82 82 85 87 87 86 83 81 81 82 81 81 83 84 82 79 78 78 79 82 84 84 86 92 98 99
80 78 77 75 74 75 78 78 73 70 80 95 94 84 86 94 92 81 76 79 76 61 56 74 86 82 80 82 81 79 79 78 79 80 79 81 82 80 80 84 86 85 84 83 82 83 83 81 80 81 82 79 79 81 80 80 84 88 88 86 88 93 95
84 80 80 77 75 76 76 75 73 72 85 102 100 91 92 96 91 83 77 78 78 68 62 74 81 74 74 78 76 74 75 75 76 77 77 80 82 79 78 80 80 80 81 82 84 83 82 80 79 79 79 78 78 79 79 81 86 90 91 90 90 91 90
90 86 82 78 79 81 79 78 77 79 92 103 99 96 100 98 97 94 77 66 77 82 71 67 72 72 73 75 75 75 75 75 77 76 75 79 81 79 79 79 76 76 80 83 83 81 79 78 78 77 77 78 79 79 80 82 84 86 88 89 91 90 86
97 96 91 83 83 87 92 94 87 85 97 103 97 101 104 96 99 102 75 50 63 78 72 66 68 70 72 73 73 75 75 75 78 78 76 78 79 78 80 82 78 78 82 83 80 78 77 78 78 76 76 77 78 80 81 82 83 83 83 85 87 87 85
99 100 98 95 92 92 99 102 92 85 96 103 99 98 96 96 106 101 67 49 63 69 64 66 67 65 69 72 71 73 76 76 78 79 78 79 79 78 80 82 82 83 85 82 76 73 73 75 76 76 77 77 77 78 78 78 80 81 81 82 83 83 82
102 101 100 100 98 94 98 102 96 91 96 102 103 94 80 85 102 86 50 48 69 68 59 64 67 64 68 72 70 71 75 76 78 79 80 81 81 80 80 82 85 87 85 80 76 72 71 72 74 75 76 76 76 76 75 74 76 77 79 80 81 81 80
94 95 99 102 101 101 102 101 100 102 101 100 102 94 80 86 99 85 57 56 68 67 63 66 67 66 69 72 72 73 74 75 78 80 82 83 83 84 84 84 86 84 80 78 78 75 72 73 74 75 75 75 74 73 73 73 73 73 76 79 81 82 82
72 71 79 86 88 89 85 78 82 96 103 97 85 75 77 94 102 90 77 73 70 68 69 68 68 70 71 71 73 74 74 75 77 80 84 84 84 86 87 86 85 81 78 79 80 76 73 75 77 76 75 74 74 74 74 74 72 71 75 78 79 82 84
68 64 61 62 64 66 65 60 66 84 102 105 87 62 59 76 82 73 73 76 73 71 73 70 68 71 72 72 74 75 75 77 78 79 83 86 87 88 87 85 84 82 81 83 83 77 75 76 77 78 77 75 75 76 74 73 72 71 74 77 78 80 83
70 68 66 65 63 61 58 55 60 79 100 107 92 67 57 67 72 69 71 74 73 75 77 74 72 73 73 74 76 75 76 80 80 81 85 89 90 91 88 85 85 85 85 87 85 79 77 77 77 77 77 75 75 75 74 73 73 72 74 77 80 81 83

ECMWFFLT1_925_rhum_144.txt.gz
RH
70 74 77 78 81 83 86 88 86 84 84 84 81 79 78 74 70 66 63 60 58 57 56 56 55 54 54 53 53 52 51 48 47 45 45 45 45 44 44 41 43 52 55 48 44 43 41 41 40 38 33 27 25 27 27 28 28 29 29 29 30 31 31
69 71 74 76 79 81 84 86 87 87 88 88 86 84 84 84 83 81 77 73 70 66 62 60 59 58 57 56 55 55 54 53 52 50 49 48 48 47 47 46 45 49 54 54 49 46 44 42 41 41 39 34 28 26 25 26 27 27 28 29 28 30 31
69 71 73 76 77 77 79 81 82 85 87 87 88 89 89 88 88 89 88 87 86 83 80 76 73 71 68 67 65 63 60 59 57 57 55 54 53 53 52 51 49 48 53 56 53 50 47 45 43 42 41 40 36 31 27 26 26 26 26 27 28 28 29
68 72 75 77 78 77 77 79 80 82 84 85 88 92 94 95 95 95 94 94 93 91 91 90 89 87 83 81 80 79 76 73 70 67 66 65 64 63 63 61 59 56 56 58 59 56 52 50 48 45 44 42 41 38 33 28 26 27 27 26 27 29 29
68 74 77 78 79 80 79 80 82 83 84 86 91 96 98 99 100 98 95 95 96 96 96 96 97 96 95 92 91 91 91 88 86 82 80 79 77 77 77 76 74 72 70 70 70 67 63 59 55 51 48 46 45 44 40 33 27 26 27 28 27 28 30
70 72 76 79 81 82 83 82 83 86 89 94 97 99 100 100 100 99 97 97 98 99 100 99 100 100 99 99 98 97 98 97 96 95 93 91 87 85 85 86 86 85 84 84 83 80 77 73 68 63 59 54 52 52 50 44 35 29 27 28 29 29 30
73 71 74 79 82 85 86 81 83 89 92 96 100 100 100 100 100 100 100 100 100 100 100 99 99 100 99 100 101 100 100 99 98 98 98 98 96 94 94 95 94 92 92 92 90 88 86 83 79 76 72 67 63 60 58 54 50 44 36 31 31 31 32
76 75 75 73 76 88 89 79 81 88 88 91 99 101 99 99 100 99 98 100 100 98 98 97 94 94 95 96 97 96 97 98 98 98 96 96 97 98 99 99 99 98 98 97 95 93 89 87 86 83 80 77 73 70 67 64 62 59 53 45 37 34 33
75 80 74 66 73 85 79 67 66 74 82 93 101 101 98 99 100 96 95 98 96 89 88 88 84 85 88 90 88 86 89 92 93 94 95 94 95 96 97 99 100 100 100 99 98 95 92 91 90 88 86 83 80 77 74 70 68 67 65 59 52 44 38
75 81 70 69 82 76 57 44 43 58 84 100 102 99 98 100 99 96 96 96 88 82 82 80 77 81 84 82 80 79 83 83 80 82 86 89 94 97 98 100 100 100 100 100 99 96 92 92 91 87 86 85 82 79 77 74 73 72 70 67 63 59 52
76 77 68 79 89 66 41 34 40 68 97 102 99 100 101 100 98 97 100 95 86 84 83 79 82 85 81 80 81 78 75 71 66 66 67 71 83 96 100 100 100 99 99 99 100 98 94 92 90 85 83 83 81 80 79 77 75 73 73 72 71 68 63
78 79 76 89 85 55 41 42 54 85 105 99 98 102 99 98 96 96 98 92 81 76 76 84 94 91 86 89 84 69 61 57 52 56 65 73 84 95 99 100 101 101 101 100 100 100 99 96 94 90 85 82 80 79 78 77 76 75 75 75 76 73 68
82 83 83 90 78 53 48 52 65 93 105 99 99 101 99 99 95 94 96 88 74 66 74 95 100 88 89 92 73 59 68 74 70 72 83 91 94 95 95 97 97 94 95 99 99 100 100 98 98 98 94 90 87 84 82 80 79 78 77 78 78 76 71
85 82 82 87 80 65 59 61 77 100 103 98 101 101 100 94 84 88 95 87 77 76 87 102 97 84 93 93 69 69 91 99 94 95 98 99 97 94 94 95 92 83 80 89 99 101 100 99 99 100 98 95 94 94 91 89 86 83 81 80 79 76 73
84 82 82 85 84 78 69 67 84 104 102 98 102 101 96 89 81 88 94 85 83 90 94 96 91 88 99 94 76 83 100 101 99 101 100 98 94 88 85 85 89 91 90 94 100 100 100 101 100 100 100 99 99 99 96 92 91 91 88 85 83 81 79
84 84 84 86 86 82 74 66 75 98 103 98 102 101 93 88 85 88 88 80 83 93 93 90 91 95 99 94 85 91 101 101 100 100 98 100 97 87 79 75 80 91 96 97 100 101 100 100 98 98 100 98 95 97 98 96 96 97 97 96 93 90 86
89 86 85 91 90 84 81 67 62 87 105 99 99 102 94 90 90 87 84 80 83 91 89 87 93 100 99 94 92 98 101 99 100 100 99 100 100 93 83 75 75 82 86 85 85 84 83 84 84 86 87 83 80 82 87 93 98 98 98 100 97 93 87
91 89 88 95 95 89 92 79 58 73 101 101 98 102 97 91 90 85 83 84 85 89 90 88 93 98 97 93 95 99 101 100 100 100 99 100 100 95 86 79 82 92 94 87 77 69 65 63 60 60 62 61 62 65 69 78 89 94 97 99 96 92 89
96 95 91 96 99 95 99 90 63 66 95 104 98 101 99 95 92 90 91 91 88 89 89 86 88 91 87 88 95 99 101 100 99 100 102 99 94 91 89 91 96 100 95 86 75 65 59 56 52 51 53 53 57 61 63 70 82 91 98 100 96 91 91
96 90 86 89 97 96 97 92 74 72 95 104 98 100 101 96 96 95 92 89 86 85 83 81 84 76 62 68 90 102 101 98 100 103 98 88 86 93 99 99 95 87 79 76 76 72 70 70 66 63 62 59 58 61 64 71 84 95 101 102 100 96 94
87 82 84 88 95 96 93 90 82 81 94 101 101 101 96 91 94 92 85 80 76 76 78 80 75 60 52 68 94 103 99 99 102 99 87 82 92 102 102 94 85 80 79 81 81 79 77 77 74 72 74 75 74 75 79 86 93 98 97 95 98 101 97
78 80 87 89 91 90 86 84 81 82 89 96 101 102 95 93 97 92 79 70 67 70 78 75 64 60 74 93 102 100 99 101 102 98 90 93 102 103 97 91 83 81 84 81 76 79 82 83 84 86 87 86 85 85 86 86 86 87 85 83 89 99 102
83 86 90 89 86 83 81 77 75 78 84 90 98 102 99 99 102 95 78 65 69 78 74 63 66 83 98 102 99 101 103 102 101 103 101 100 102 97 91 86 79 79 84 81 81 88 91 89 88 87 86 85 85 83 80 77 75 74 74 75 82 93 100
85 86 88 88 84 81 78 76 75 77 82 89 95 97 98 101 102 96 80 68 74 77 62 60 86 105 104 102 102 103 102 97 96 102 101 96 93 89 83 80 80 84 87 85 88 94 94 91 89 89 91 91 85 80 76 73 73 74 76 81 86 88 91
85 84 83 83 82 79 77 78 77 73 77 90 95 91 95 101 97 88 79 72 71 62 50 68 101 105 94 97 100 92 88 87 88 94 94 90 87 82 78 80 82 83 82 85 92 96 95 93 92 90 89 83 78 77 77 76 80 82 81 82 83 79 76
86 84 83 82 80 78 76 77 75 68 77 98 98 85 89 95 86 80 76 66 54 42 40 68 96 92 82 87 89 83 82 81 82 84 82 82 83 80 80 84 82 79 80 85 90 93 91 89 87 84 81 78 78 82 82 83 88 89 84 82 83 82 78
86 85 85 81 78 77 76 77 72 65 80 103 99 88 93 91 83 83 75 53 43 41 48 70 84 73 67 74 77 74 74 73 74 74 71 76 82 79 80 86 84 79 81 84 86 88 85 81 81 81 81 82 84 83 81 84 89 91 90 89 89 92 92
90 92 88 80 79 78 77 81 73 62 78 102 101 96 101 94 89 90 69 49 58 63 56 67 75 60 55 66 70 66 66 69 72 70 69 77 83 80 81 85 84 81 81 82 85 84 79 75 78 80 82 83 84 84 83 84 86 88 89 89 90 92 92
98 98 87 79 83 83 80 84 74 61 79 101 100 100 103 98 101 99 63 46 74 80 57 58 70 61 57 67 72 71 71 73 73 71 71 78 82 81 83 85 85 85 83 83 86 84 76 75 78 80 81 82 82 83 83 82 83 86 85 85 89 92 90
103 101 89 83 87 88 89 91 77 71 91 104 98 101 103 95 102 100 62 41 63 69 55 58 68 64 64 69 70 73 75 75 77 75 75 80 83 82 85 87 87 87 84 83 87 85 77 76 80 81 81 81 82 84 83 82 82 83 82 84 87 90 91
101 101 96 93 92 93 99 95 79 79 99 103 97 101 101 98 107 99 65 50 58 55 53 64 68 64 68 70 68 72 75 75 77 76 76 82 84 82 86 90 87 86 84 84 87 86 80 77 80 83 83 82 83 85 83 81 82 81 82 85 87 87 90
101 101 101 100 95 93 99 96 84 86 97 101 103 98 83 85 102 88 51 43 55 56 59 69 68 66 70 71 71 74 75 75 76 74 76 82 83 81 86 88 85 85 86 86 88 87 82 79 80 83 83 82 84 86 84 83 83 83 83 84 85 87 87
93 94 98 102 102 100 99 97 97 100 99 100 104 93 72 76 97 90 59 44 50 60 68 70 68 69 72 71 73 75 74 75 75 73 75 79 79 82 85 83 82 85 86 88 90 87 82 83 83 81 81 82 82 83 84 84 84 84 84 85 86 89 88
81 76 77 85 92 90 82 75 75 81 89 95 89 76 75 90 98 89 75 64 58 65 73 71 68 71 71 71 73 74 74 75 73 72 76 77 77 82 84 79 80 86 88 90 91 86 83 85 83 79 79 82 82 81 83 85 85 84 85 86 87 88 89
76 68 63 63 66 65 60 55 51 56 79 101 91 63 59 74 73 64 69 72 67 69 74 73 72 74 72 72 75 74 73 75 73 72 76 78 79 84 83 78 80 88 91 90 87 84 84 84 81 79 79 80 81 84 84 85 86 85 85 86 86 87 90
71 68 66 63 59 57 53 49 49 59 83 106 101 71 53 57 60 60 68 75 74 74 74 73 74 77 77 77 77 74 74 75 73 73 77 80 83 84 82 81 87 93 91 87 84 83 84 84 82 81 82 81 84 88 87 86 87 86 86 86 85 86 89